Location: Hopkins Observatory
(42.6965°N, 73.1843°W)
Time: 20:50:06
(UTC-04:00)

Amateur Radio Satellites - All Passes

Search period start: 26 March 2017 20:20
Search period end: 27 March 2017 20:20
Location: Hopkins Observatory, 42.6965°N, 73.1843°W

Satellite Date Start Highest point End Downlink Frequencies (MHz)
Time Altitude Azimuth
AO-85 26 Mar 20:32:03 20:35:48 27° 115° (ESE) 20:39:22 145.980
UWE-3 26 Mar 20:42:35 20:47:13 65° 259° (W) 20:51:49 435.000/436.395/437.385
HO-68 26 Mar 20:44:14 20:50:25 31° 265° (W) 20:56:39 435.675
DELFI C3 26 Mar 20:54:35 20:57:38 22° 68° (ENE) 21:00:43 145.870
STRAND 1 26 Mar 21:04:00 21:08:51 44° 290° (WNW) 21:13:40 437.568
AAUSAT CUBESAT 2 26 Mar 21:11:05 21:14:30 25° 265° (W) 21:17:55 437.432
Oscar 11 26 Mar 21:15:50 21:20:05 61° 259° (W) 21:24:23 .
Tancredo 1 26 Mar 21:17:08 21:20:17 82° 145° (SE) 21:23:28 437.200
ISS 26 Mar 21:17:36 21:20:51 73° 144° (SE) 21:24:07 437.550
CUBEBUG 2 26 Mar 21:18:01 21:21:28 20° 268° (W) 21:24:54 437.445
YUBILEINY 26 Mar 21:18:12 21:23:42 19° 283° (WNW) 21:29:13 435.215
ZACube-1 26 Mar 21:23:34 21:27:51 40° 262° (W) 21:32:05 437.345
RS-15 26 Mar 21:40:51 21:53:15 75° 53° (NE) 22:05:03 29.354- 29.394
SO-50 26 Mar 21:42:51 21:43:08 10° 30° (NNE) 21:43:25 436.795
AO-73 26 Mar 21:52:47 21:56:21 23° 266° (W) 21:59:54 145.935
ESTCUBE 1 26 Mar 22:03:18 22:04:37 11° 60° (ENE) 22:05:57 437.505/2401.250
AO-85 26 Mar 22:12:10 22:16:06 33° 311° (NW) 22:19:51 145.980
PRISM 26 Mar 22:17:51 22:21:55 49° 100° (E) 22:25:57 437.425
LO-87 26 Mar 22:25:57 22:29:02 27° 70° (ENE) 22:32:09 145.935 - 145.965
DELFI C3 26 Mar 22:28:55 22:32:18 28° 264° (W) 22:35:43 145.870
FO-29 26 Mar 22:39:20 22:44:23 28° 92° (E) 22:49:01 435.910
BEESAT 3 26 Mar 22:47:58 22:51:53 73° 120° (ESE) 22:55:51 437.485
Tancredo 1 26 Mar 22:54:08 22:56:43 22° 343° (NNW) 22:59:20 437.200
ISS 26 Mar 22:54:50 22:57:35 24° 343° (NNW) 23:00:22 437.550
TIGRISAT 26 Mar 22:59:35 23:04:00 68° 102° (ESE) 23:08:16 435.000
BEESAT 2 26 Mar 23:04:15 23:07:59 41° 117° (ESE) 23:11:46 435.950
UNISAT 6 26 Mar 23:09:49 23:14:16 86° 284° (WNW) 23:18:35 437.425
VELOX 1 26 Mar 23:12:57 23:16:00 19° 64° (ENE) 23:19:05 145.980
SO-50 26 Mar 23:20:19 23:24:42 48° 51° (NE) 23:29:03 436.795
50 SAT 26 Mar 23:23:28 23:24:15 11° 64° (ENE) 23:25:02 437.505
NANOSAT C BR1 26 Mar 23:34:04 23:35:44 12° 90° (E) 23:37:23 145.865
ESTCUBE 1 26 Mar 23:36:17 23:40:45 82° 255° (WSW) 23:45:15 437.505/2401.250
EO-79 26 Mar 23:38:08 23:40:35 15° 91° (E) 23:43:00 145.935-145.965
SPROUT 26 Mar 23:54:11 23:58:12 40° 71° (ENE) 00:02:15 437.525
PRISM 26 Mar 23:54:19 23:56:47 15° 297° (WNW) 23:59:15 437.425
RS-15 26 Mar 23:54:24 00:04:39 34° 256° (WSW) 00:14:34 29.354- 29.394
LO-87 26 Mar 23:59:56 00:02:30 18° 266° (W) 00:05:07 145.935 - 145.965
POLYITAN 1 27 Mar 00:05:20 00:09:03 29° 96° (E) 00:12:45 437.675
QB50P2 27 Mar 00:09:49 00:13:45 36° 97° (E) 00:17:38 145.880/145.840
DUCHIFAT 1 27 Mar 00:21:35 00:25:30 36° 98° (E) 00:29:22 145.980
FO-29 27 Mar 00:24:02 00:29:41 41° 293° (WNW) 00:34:47 435.910
DX 1 27 Mar 00:24:04 00:28:09 42° 71° (ENE) 00:32:16 434.975-435.025
BEESAT 3 27 Mar 00:27:38 00:29:56 15° 320° (NW) 00:32:18 437.485
Tancredo 1 27 Mar 00:31:31 00:33:40 16° 4° (N) 00:35:50 437.200
ISS 27 Mar 00:32:36 00:34:53 17° 3° (N) 00:37:09 437.550
BUGSAT 1 27 Mar 00:37:18 00:40:14 18° 93° (E) 00:43:07 437.445
AIST 2D 27 Mar 00:38:02 00:41:27 51° 286° (WNW) 00:44:50 435.315
TIGRISAT 27 Mar 00:38:07 00:40:05 13° 299° (WNW) 00:42:01 435.000
BEESAT 2 27 Mar 00:42:47 00:45:55 22° 316° (NW) 00:49:04 435.950
VELOX 1 27 Mar 00:47:54 00:52:07 44° 261° (W) 00:56:23 145.980
50 SAT 27 Mar 00:53:30 00:56:51 49° 260° (W) 01:00:14 437.505
SO-50 27 Mar 01:01:34 01:04:49 20° 249° (WSW) 01:08:02 436.795
UKube-1 27 Mar 01:03:18 01:07:36 80° 76° (ENE) 01:11:56 .
NANOSAT C BR1 27 Mar 01:07:40 01:11:51 59° 286° (WNW) 01:15:58 145.865
EO-79 27 Mar 01:12:31 01:16:37 48° 288° (WNW) 01:20:40 145.935-145.965
BEESAT 27 Mar 01:19:15 01:20:24 11° 58° (ENE) 01:21:32 436.000
SPROUT 27 Mar 01:31:16 01:34:17 18° 268° (W) 01:37:18 437.525
ITUPSAT 1 27 Mar 01:33:59 01:36:40 15° 61° (ENE) 01:39:21 437.325
POLYITAN 1 27 Mar 01:41:17 01:44:43 25° 293° (WNW) 01:48:08 437.675
QB50P2 27 Mar 01:46:09 01:49:19 21° 294° (WNW) 01:52:28 145.880/145.840
DUCHIFAT 1 27 Mar 01:57:49 02:00:55 20° 295° (WNW) 02:04:00 145.980
O/OREOS (USA 219) 27 Mar 01:59:34 02:03:22 24° 56° (ENE) 02:07:09 437.305
DX 1 27 Mar 02:01:31 02:04:31 18° 267° (W) 02:07:32 434.975-435.025
Tancredo 1 27 Mar 02:07:33 02:10:29 33° 23° (NNE) 02:13:26 437.200
Oscar 19 27 Mar 02:08:38 02:13:41 53° 100° (E) 02:18:44 437.125/150
ISS 27 Mar 02:09:03 02:12:04 32° 23° (NNE) 02:15:05 437.550
BUGSAT 1 27 Mar 02:11:51 02:15:44 38° 290° (WNW) 02:19:33 437.445
Gurwin Techsat 1B 27 Mar 02:25:54 02:30:59 44° 99° (E) 02:36:02 435.225
BEESAT 27 Mar 02:52:36 02:57:23 85° 76° (ENE) 03:02:12 436.000
AO-7 27 Mar 03:02:14 03:07:34 18° 90° (E) 03:12:51 .
MOZHAYETS 4 27 Mar 03:06:24 03:10:48 47° 72° (ENE) 03:15:12
ITUPSAT 1 27 Mar 03:09:10 03:13:56 68° 258° (WSW) 03:18:43 437.325
O/OREOS (USA 219) 27 Mar 03:38:38 03:42:53 37° 254° (WSW) 03:47:06 437.305
Tancredo 1 27 Mar 03:43:40 03:46:39 36° 221° (SW) 03:49:37 437.200
ISS 27 Mar 03:45:28 03:48:36 41° 221° (SW) 03:51:43 437.550
Oscar 19 27 Mar 03:48:49 03:52:38 21° 297° (WNW) 03:56:26 437.125/150
ITAMSAT 1 27 Mar 03:56:28 04:01:32 50° 100° (E) 04:06:32 435.822/435.867
CUBESAT XI-V 27 Mar 04:00:15 04:04:10 29° 68° (ENE) 04:08:07 437.345
Gurwin Techsat 1B 27 Mar 04:06:21 04:10:40 26° 296° (WNW) 04:15:00 435.225
KKS-1 27 Mar 04:21:02 04:25:27 64° 74° (ENE) 04:29:55 437.445
BEESAT 27 Mar 04:35:08 04:35:46 10° 272° (W) 04:36:25 436.000
MOZHAYETS 4 27 Mar 04:45:03 04:48:11 18° 268° (W) 04:51:19
AO-7 27 Mar 04:53:02 05:01:23 88° 109° (ESE) 05:09:41 .
STARS 27 Mar 04:55:53 05:00:16 67° 74° (ENE) 05:04:42 437.465
AO-85 27 Mar 05:02:01 05:05:27 28° 48° (NE) 05:08:55 145.980
M-CUBED/EXP-1 PRIME 27 Mar 05:08:28 05:11:08 19° 58° (ENE) 05:13:58 437.505
ITAMSAT 1 27 Mar 05:36:42 05:40:39 22° 297° (WNW) 05:44:34 435.822/435.867
CUBESAT XI-V 27 Mar 05:37:30 05:41:29 29° 265° (W) 05:45:29 437.345
CUTE-I 27 Mar 05:51:54 05:54:02 12° 88° (E) 05:56:09 437.470
KKS-1 27 Mar 06:00:31 06:02:26 13° 270° (W) 06:04:22 437.445
YUBILEINY 27 Mar 06:27:46 06:33:44 21° 78° (ENE) 06:39:40 435.215
XW-2F 27 Mar 06:28:21 06:31:28 25° 95° (E) 06:34:35 145.980 - 146.000
DOVE 4 27 Mar 06:29:29 06:34:36 45° 98° (E) 06:39:35 437.250
LilacSat-2 27 Mar 06:30:36 06:33:55 29° 96° (E) 06:37:13 437.200
STARS 27 Mar 06:35:26 06:37:03 12° 270° (W) 06:38:41 437.465
STRAND 1 27 Mar 06:41:47 06:46:27 36° 68° (ENE) 06:51:08 437.568
M-CUBED/EXP-1 PRIME 27 Mar 06:41:50 06:45:17 37° 258° (WSW) 06:49:01 437.505
AO-85 27 Mar 06:42:24 06:45:46 28° 245° (WSW) 06:49:14 145.980
AO-7 27 Mar 06:47:04 06:53:09 23° 309° (NW) 06:59:14 .
NUDT-PHONESAT 27 Mar 06:51:49 06:55:18 39° 98° (E) 06:58:46 437.300
XW-2D 27 Mar 06:54:14 06:57:57 56° 100° (E) 07:01:37 145.860 - 145.880
KAITUO 1B 27 Mar 06:59:44 07:03:21 50° 99° (E) 07:06:57 145.475/437.950
XW-2B 27 Mar 07:00:10 07:03:55 65° 101° (ESE) 07:07:37 145.730 - 145.750
BEESAT 3 27 Mar 07:04:05 07:08:02 52° 53° (NE) 07:11:57 437.485
XW-2C 27 Mar 07:10:22 07:14:08 89° 102° (ESE) 07:17:53 145.795 - 145.815
BEESAT 2 27 Mar 07:21:07 07:24:51 33° 49° (NE) 07:28:33 435.950
NO-84 27 Mar 07:26:58 07:29:49 66° 322° (NW) 07:32:39 435.350 FM
CUTE-I 27 Mar 07:29:21 07:34:45 85° 284° (WNW) 07:40:04 437.470
SEEDS 27 Mar 07:35:14 07:37:08 13° 90° (E) 07:39:01 437.485
CUTE 1.7 + AOD 2 27 Mar 07:42:02 07:45:27 23° 94° (E) 07:48:51 437.475
XW-2F 27 Mar 08:02:34 08:05:31 22° 292° (WNW) 08:08:26 145.980 - 146.000
LilacSat-2 27 Mar 08:05:16 08:08:02 20° 292° (WNW) 08:10:48 437.200
DOVE 4 27 Mar 08:07:41 08:11:58 25° 295° (WNW) 08:16:11 437.250
HO-68 27 Mar 08:09:41 08:16:38 51° 100° (E) 08:23:34 435.675
YUBILEINY 27 Mar 08:20:38 08:29:24 83° 279° (W) 08:38:11 435.215
STRAND 1 27 Mar 08:21:14 08:25:39 29° 265° (W) 08:30:06 437.568
NUDT-PHONESAT 27 Mar 08:26:51 08:28:54 14° 295° (WNW) 08:30:56 437.300
XW-2A 27 Mar 08:27:09 08:30:33 74° 284° (WNW) 08:33:53 145.665 - 145.685
PCSat 27 Mar 08:27:26 08:29:47 13° 102° (ESE) 08:32:08 145.827
XW-2D 27 Mar 08:30:31 08:31:39 11° 297° (WNW) 08:32:47 145.860 - 145.880
UWE-3 27 Mar 08:32:14 08:35:39 23° 93° (E) 08:39:01 435.000/436.395/437.385
KAITUO 1B 27 Mar 08:35:32 08:36:56 12° 296° (WNW) 08:38:20 145.475/437.950
UNISAT 6 27 Mar 08:36:05 08:37:15 11° 59° (ENE) 08:38:25 437.425
BEESAT 3 27 Mar 08:42:55 08:45:13 15° 250° (WSW) 08:47:30 437.485
AAUSAT CUBESAT 2 27 Mar 08:51:28 08:55:27 43° 99° (E) 08:59:25 437.432
FO-29 27 Mar 08:52:01 08:57:15 20° 58° (ENE) 09:02:15 435.910
BEESAT 2 27 Mar 08:59:10 09:02:28 24° 247° (WSW) 09:05:45 435.950
Oscar 11 27 Mar 09:02:42 09:06:07 23° 94° (E) 09:09:31 .
NO-84 27 Mar 09:06:32 09:07:50 12° 342° (NNW) 09:09:09 435.350 FM
CUBEBUG 2 27 Mar 09:06:42 09:11:09 89° 272° (W) 09:15:25 437.445
PRISM 27 Mar 09:07:43 09:11:29 38° 71° (ENE) 09:15:17 437.425
SEEDS 27 Mar 09:09:03 09:13:09 55° 286° (WNW) 09:17:15 437.485
ZACube-1 27 Mar 09:11:07 09:15:01 35° 97° (E) 09:18:49 437.345
CUTE-I 27 Mar 09:11:43 09:13:56 13° 303° (WNW) 09:16:10 437.470
CUTE 1.7 + AOD 2 27 Mar 09:17:35 09:21:17 30° 290° (WNW) 09:24:58 437.475
AO-73 27 Mar 09:38:54 09:43:07 66° 102° (ESE) 09:47:13 145.935
HO-68 27 Mar 09:57:51 10:04:05 34° 299° (WNW) 10:10:20 435.675
TIGRISAT 27 Mar 09:58:10 10:02:49 65° 74° (ENE) 10:07:27 435.000
DELFI C3 27 Mar 10:04:41 10:08:17 32° 96° (E) 10:11:52 145.870
PCSat 27 Mar 10:06:57 10:12:22 87° 297° (WNW) 10:17:51 145.827
UWE-3 27 Mar 10:08:21 10:12:10 31° 291° (WNW) 10:15:53 435.000/436.395/437.385
UNISAT 6 27 Mar 10:08:31 10:13:13 88° 80° (E) 10:17:55 437.425
YUBILEINY 27 Mar 10:22:06 10:27:40 18° 300° (WNW) 10:33:16 435.215
NANOSAT C BR1 27 Mar 10:27:42 10:28:58 11° 61° (ENE) 10:30:16 145.865
AAUSAT CUBESAT 2 27 Mar 10:27:54 10:30:34 17° 295° (WNW) 10:33:14 437.432
EO-79 27 Mar 10:31:49 10:33:57 14° 62° (ENE) 10:36:06 145.935-145.965
FO-29 27 Mar 10:33:34 10:41:26 89° 75° (ENE) 10:48:47 435.910
Oscar 11 27 Mar 10:38:27 10:42:18 32° 290° (WNW) 10:46:08 .
PRISM 27 Mar 10:44:10 10:46:55 17° 267° (W) 10:49:41 437.425
ZACube-1 27 Mar 10:47:55 10:51:04 21° 294° (WNW) 10:54:10 437.345
POLYITAN 1 27 Mar 10:58:34 11:02:06 26° 68° (ENE) 11:05:38 437.675
QB50P2 27 Mar 11:02:59 11:06:43 30° 69° (ENE) 11:10:29 145.880/145.840
AIST 2D 27 Mar 11:12:41 11:16:10 57° 75° (ENE) 11:19:38 435.315
DUCHIFAT 1 27 Mar 11:13:55 11:17:38 30° 69° (ENE) 11:21:23 145.980
AO-73 27 Mar 11:17:10 11:18:46 12° 299° (WNW) 11:20:21 145.935
LO-87 27 Mar 11:25:13 11:28:30 30° 97° (E) 11:31:45 145.935 - 145.965
BUGSAT 1 27 Mar 11:28:05 11:30:38 16° 64° (ENE) 11:33:12 437.445
ESTCUBE 1 27 Mar 11:28:42 11:31:59 20° 93° (E) 11:35:16 437.505/2401.250
TIGRISAT 27 Mar 11:37:33 11:39:54 14° 270° (W) 11:42:14 435.000
DELFI C3 27 Mar 11:39:54 11:42:53 21° 293° (WNW) 11:45:52 145.870
Oscar 19 27 Mar 11:51:07 11:52:46 12° 57° (ENE) 11:54:26 437.125/150
PCSat 27 Mar 11:53:02 11:56:34 17° 320° (NW) 12:00:09 145.827
NANOSAT C BR1 27 Mar 11:59:48 12:04:04 76° 257° (WSW) 12:08:21 145.865
RS-15 27 Mar 12:04:37 12:15:33 44° 108° (ESE) 12:26:48 29.354- 29.394
EO-79 27 Mar 12:04:59 12:09:13 61° 259° (W) 12:13:28 145.935-145.965
Gurwin Techsat 1B 27 Mar 12:12:28 12:13:53 11° 56° (NE) 12:15:18 435.225
FO-29 27 Mar 12:21:58 12:27:06 19° 271° (W) 12:32:06 435.910
NO-84 27 Mar 12:22:56 12:25:09 18° 26° (NNE) 12:27:27 435.350 FM
POLYITAN 1 27 Mar 12:34:01 12:37:46 29° 264° (W) 12:41:32 437.675
VELOX 1 27 Mar 12:37:04 12:41:03 31° 96° (E) 12:45:01 145.980
QB50P2 27 Mar 12:38:59 12:42:30 24° 265° (W) 12:46:02 145.880/145.840
DUCHIFAT 1 27 Mar 12:49:51 12:53:19 24° 265° (W) 12:56:48 145.980
UKube-1 27 Mar 12:51:26 12:53:15 12° 90° (E) 12:55:03 .
LO-87 27 Mar 12:59:13 13:01:44 18° 293° (WNW) 13:04:13 145.935 - 145.965
BUGSAT 1 27 Mar 13:01:27 13:05:34 51° 260° (W) 13:09:45 437.445
ESTCUBE 1 27 Mar 13:04:43 13:08:57 41° 289° (WNW) 13:13:10 437.505/2401.250
SPROUT 27 Mar 13:14:32 13:18:50 71° 101° (ESE) 13:23:05 437.525
Oscar 19 27 Mar 13:26:09 13:31:15 82° 73° (ENE) 13:36:24 437.125/150
SO-50 27 Mar 13:37:43 13:39:42 13° 108° (ESE) 13:41:41 436.795
ITAMSAT 1 27 Mar 13:39:38 13:41:36 12° 57° (ENE) 13:43:35 435.822/435.867
DX 1 27 Mar 13:47:05 13:51:29 72° 102° (ESE) 13:55:51 434.975-435.025
Gurwin Techsat 1B 27 Mar 13:47:36 13:52:54 75° 74° (ENE) 13:58:14 435.225
50 SAT 27 Mar 13:49:46 13:53:12 51° 286° (WNW) 13:56:37 437.505
NO-84 27 Mar 13:59:47 14:02:57 70° 223° (SW) 14:06:23 435.350 FM
AO-7 27 Mar 14:01:47 14:08:45 31° 56° (NE) 14:15:41 .
VELOX 1 27 Mar 14:13:40 14:17:23 26° 293° (WNW) 14:21:05 145.980
RS-15 27 Mar 14:15:40 14:27:37 63° 312° (NW) 14:39:56 29.354- 29.394
UKube-1 27 Mar 14:25:23 14:29:40 62° 286° (WNW) 14:33:56 .
SPROUT 27 Mar 14:52:33 14:54:08 12° 299° (WNW) 14:55:44 437.525
BEESAT 27 Mar 14:52:46 14:56:14 20° 93° (E) 14:59:43 436.000
ITUPSAT 1 27 Mar 15:09:11 15:13:18 28° 96° (E) 15:17:23 437.325
Oscar 19 27 Mar 15:09:20 15:11:12 12° 272° (W) 15:13:04 437.125/150
SO-50 27 Mar 15:14:54 15:19:33 77° 304° (NW) 15:24:10 436.795
ITAMSAT 1 27 Mar 15:15:00 15:20:14 83° 75° (ENE) 15:25:30 435.822/435.867
DX 1 27 Mar 15:25:15 15:27:04 12° 299° (WNW) 15:28:53 434.975-435.025
Gurwin Techsat 1B 27 Mar 15:30:38 15:33:24 14° 271° (W) 15:36:11 435.225
AO-7 27 Mar 15:52:40 16:00:56 67° 255° (WSW) 16:09:14 .
O/OREOS (USA 219) 27 Mar 16:13:05 16:16:35 22° 102° (ESE) 16:20:07 437.305
KKS-1 27 Mar 16:13:27 16:14:57 11° 90° (E) 16:16:26 437.445
BEESAT 27 Mar 16:29:42 16:34:14 45° 290° (WNW) 16:38:44 436.000
RS-15 27 Mar 16:33:06 16:43:20 29° 342° (NNW) 16:53:38 29.354- 29.394
MOZHAYETS 4 27 Mar 16:37:18 16:41:53 81° 285° (WNW) 16:46:26
STARS 27 Mar 16:46:48 16:48:11 11° 89° (E) 16:49:33 437.465
ITUPSAT 1 27 Mar 16:46:54 16:51:06 32° 293° (WNW) 16:55:17 437.325
ITAMSAT 1 27 Mar 16:58:17 17:00:19 12° 271° (W) 17:02:23 435.822/435.867
SO-50 27 Mar 16:58:17 17:00:46 14° 324° (NW) 17:03:15 436.795
XW-2F 27 Mar 17:10:57 17:13:06 15° 65° (ENE) 17:15:16 145.980 - 146.000
PCSat 27 Mar 17:11:49 17:15:23 17° 40° (NE) 17:18:54 145.827
CUTE-I 27 Mar 17:13:25 17:17:38 24° 63° (ENE) 17:21:51 437.470
LilacSat-2 27 Mar 17:13:51 17:16:24 17° 67° (ENE) 17:18:58 437.200
CUBESAT XI-V 27 Mar 17:32:13 17:36:52 64° 101° (E) 17:41:30 437.345
NUDT-PHONESAT 27 Mar 17:32:19 17:35:11 21° 68° (ENE) 17:38:03 437.300
DOVE 4 27 Mar 17:35:18 17:39:48 45° 71° (ENE) 17:44:34 437.250
XW-2D 27 Mar 17:36:14 17:39:34 30° 70° (ENE) 17:42:55 145.860 - 145.880
KAITUO 1B 27 Mar 17:40:41 17:43:50 26° 70° (ENE) 17:47:00 145.475/437.950
XW-2B 27 Mar 17:42:04 17:45:31 34° 72° (ENE) 17:48:58 145.730 - 145.750
KKS-1 27 Mar 17:47:30 17:51:59 70° 286° (WNW) 17:56:25 437.445
O/OREOS (USA 219) 27 Mar 17:51:32 17:55:45 37° 299° (WNW) 18:00:01 437.305
XW-2C 27 Mar 17:52:05 17:55:43 45° 73° (ENE) 17:59:22 145.795 - 145.815
AO-7 27 Mar 17:52:29 17:55:11 12° 274° (W) 17:57:55 .
M-CUBED/EXP-1 PRIME 27 Mar 18:20:13 18:22:50 15° 96° (E) 18:25:26 437.505
STARS 27 Mar 18:20:34 18:24:59 70° 286° (WNW) 18:29:22 437.465
SEEDS 27 Mar 18:29:11 18:29:58 10° 61° (ENE) 18:30:45 437.485
YUBILEINY 27 Mar 18:29:59 18:38:27 52° 75° (ENE) 18:46:52 435.215
CUBEBUG 2 27 Mar 18:32:56 18:33:25 10° 59° (ENE) 18:33:53 437.445
CUTE 1.7 + AOD 2 27 Mar 18:35:48 18:38:47 19° 66° (ENE) 18:41:46 437.475
HO-68 27 Mar 18:39:06 18:45:40 41° 64° (ENE) 18:52:14 435.675
XW-2F 27 Mar 18:43:19 18:46:55 41° 262° (W) 18:50:31 145.980 - 146.000
LilacSat-2 27 Mar 18:46:55 18:50:26 35° 263° (W) 18:53:57 437.200
RS-15 27 Mar 18:50:57 19:01:14 29° 17° (NNE) 19:11:17 29.354- 29.394
CUTE-I 27 Mar 18:52:10 18:57:21 49° 260° (W) 19:02:34 437.470
PCSat 27 Mar 18:54:07 18:59:35 86° 60° (ENE) 19:05:01 145.827
STRAND 1 27 Mar 18:54:11 18:55:14 11° 88° (E) 18:56:17 437.568
XW-2A 27 Mar 18:59:01 19:02:13 37° 72° (ENE) 19:05:26 145.665 - 145.685
NUDT-PHONESAT 27 Mar 19:05:47 19:08:58 26° 264° (W) 19:12:11 437.300
XW-2D 27 Mar 19:11:02 19:13:48 19° 266° (W) 19:16:35 145.860 - 145.880
CUBESAT XI-V 27 Mar 19:11:06 19:13:43 15° 298° (WNW) 19:16:19 437.345
DOVE 4 27 Mar 19:14:14 19:17:45 20° 269° (W) 19:21:25 437.250
KAITUO 1B 27 Mar 19:14:57 19:17:50 21° 265° (W) 19:20:44 145.475/437.950
XW-2B 27 Mar 19:17:17 19:19:49 17° 267° (W) 19:22:21 145.730 - 145.750
XW-2C 27 Mar 19:28:24 19:30:10 13° 269° (W) 19:31:55 145.795 - 145.815
UWE-3 27 Mar 19:29:34 19:33:14 23° 67° (ENE) 19:36:50 435.000/436.395/437.385
AAUSAT CUBESAT 2 27 Mar 19:42:16 19:45:53 31° 70° (ENE) 19:49:32 437.432
M-CUBED/EXP-1 PRIME 27 Mar 19:52:59 19:57:36 65° 291° (WNW) 20:02:13 437.505
Oscar 11 27 Mar 19:58:28 20:01:37 20° 66° (ENE) 20:04:46 .
SEEDS 27 Mar 20:00:53 20:05:02 76° 259° (W) 20:09:13 437.485
CUBEBUG 2 27 Mar 20:04:29 20:09:14 82° 76° (ENE) 20:13:59 437.445
ZACube-1 27 Mar 20:07:10 20:11:11 32° 70° (ENE) 20:15:10 437.345
CUTE 1.7 + AOD 2 27 Mar 20:10:25 20:14:20 38° 262° (W) 20:18:17 437.475
